Location: York
(31.8935°S, 116.7682°E)
Time: 17:52:40
(UTC+08:00)

Hubble Space Telescope - Pass Details

Date: 16 May 2021
Orbit: 535 x 539 km, 28.5° (Epoch: 17 June)

Event Time Altitude Azimuth Distance (km) Brightness Sun altitude
Rises 17:48:34 0° 320° (NW) 2,675 5.5 -5.8°
Reaches altitude 10° 17:51:23 10° 339° (NNW) 1,789 4.0 -6.4°
Maximum altitude 17:54:13 18° 22° (NNE) 1,366 2.8 -6.9°
Drops below altitude 10° 17:57:04 10° 66° (ENE) 1,797 3.0 -7.5°
Enters shadow 17:58:16 - 76° (ENE) 2,151 3.3 -7.8°
